Location: Unspecified
(0.0000°N, 0.0000°E)
Time: 10:34:32
(UTC+00:00)

Explorer 11/Cluster Stage 4 - Pass Details

Date: 10 October 2020
Orbit: 467 x 1258 km, 28.8° (Epoch: 28 October)

Event Time Altitude Azimuth Distance (km) Brightness Sun altitude
Rises 06:09:26 0° 261° (W) 3,796 9.4 5.6°
Reaches altitude 10° 06:13:00 10° 244° (WSW) 2,974 9.1 6.5°
Maximum altitude 06:17:59 19° 202° (SSW) 2,516 9.1 7.7°
Drops below altitude 10° 06:23:18 10° 161° (SSE) 3,207 10.1 9.0°
Sets 06:27:23 0° 144° (SE) 4,202 11.0 10.0°
